Location: *
(11.7485°N, 79.7483°E)
Time: 02:53:24
(UTC+00:00)

CZ-4B R/B - Pass Details

Date: 22 January 2021
Orbit: 486 x 651 km, 97.9° (Epoch: 05 March)

Event Time Altitude Azimuth Distance (km) Brightness Sun altitude
Rises 00:18:52 0° 351° (N) 2,594 6.0 -11.7°
Reaches altitude 10° 00:21:13 10° 336° (NNW) 1,732 5.0 -11.2°
Maximum altitude 00:24:11 23° 283° (WNW) 1,154 3.8 -10.5°
Drops below altitude 10° 00:27:16 10° 230° (SW) 1,800 5.1 -9.8°
Sets 00:29:45 0° 215° (SW) 2,725 6.2 -9.2°
